[[{"header":{"parameterUnit":"m.s-1","parameterCategory":1,"la1":30.2991,"la2":30.254,"lo1":-89.0895,"lo2":-89.0444,"dy":0.0017,"dx":0.0017,"nx":28,"ny":28,"refTime":"2023-08-21T03:00:00:Z","depth":0,"parameterNumber":2,"parameterNumberName":"U-component_of_WINDS"},"data":[0,0,0,0,0,0,0,0,0,0,0,0,0,0,0,0,0,0,0,0,0,0,0,0,0,0,0,0,0,0,0,0,0,0,0,0,0,0,0,0,0,0,0,0,0,0,0,0,0,0,0,0,0,0,0,0,0,0,-6.6555,-6.6555,0,-6.6544,-6.6544,-6.6544,-6.6436,-6.6434,-6.6431,-6.6429,-6.6417,-6.642,-6.6422,0,0,0,0,0,0,0,0,0,0,0,0,0,-6.6485,-6.6487,-6.6555,-6.6555,-6.6555,-6.6544,-6.6544,-6.6544,-6.6437,-6.6434,-6.643,-6.6427,-6.6417,-6.6419,-6.6422,0,0,0,0,0,0,0,0,0,0,0,0,0,-6.6499,-6.6488,-6.6555,-6.65,-6.6495,-6.6544,-6.6544,-6.6544,-6.6438,-6.6434,-6.643,-6.6426,-6.6416,-6.6419,-6.6422,-6.6523,0,0,-6.6432,-6.6434,0,0,0,0,0,0,0,0,-6.6498,-6.6502,-6.6508,-6.6504,-6.6498,-6.6487,-6.6515,-6.6537,-6.6439,-6.6459,-6.6428,-6.6424,-6.6444,-6.6445,-6.6451,-6.6522,-6.6522,-6.6433,-6.6435,-6.6436,-6.6437,0,0,0,0,0,0,0,-6.6498,-6.6502,-6.655,-6.6508,-6.6502,-6.6477,-6.6474,-6.6519,-6.6474,-6.6457,-6.6449,-6.645,-6.644,-6.6449,-6.645,-6.6522,-6.6433,-6.6435,-6.6437,-6.6439,-6.6676,-6.668,0,0,0,0,0,0,-6.6504,-6.6501,-6.6551,-6.655,-6.6488,-6.6481,-6.6478,-6.6495,-6.6474,-6.6466,-6.6453,-6.6445,-6.6445,-6.6447,-6.645,-6.6566,-6.6436,-6.6439,-6.6441,-6.6672,-6.6677,-6.6682,0,0,0,0,0,0,-6.6503,-6.6509,-6.6551,-6.6524,-6.6527,-6.6487,-6.6506,-6.6497,-6.6505,-6.647,-6.6462,-6.6469,-6.6442,-6.6445,-6.6506,-6.6564,-6.6441,-6.6444,-6.6667,-6.6674,-6.668,-6.6799,0,0,0,0,0,0,-6.6501,-6.651,-6.6547,-6.6525,-6.6529,-6.6607,-6.651,-6.65,-6.6511,-6.65,-6.6483,-6.6477,-6.6439,-6.6501,-6.6509,-6.6566,-6.6446,-6.6661,-6.667,-6.6678,-6.679,-6.6809,-6.6825,0,0,0,0,0,-6.6499,-6.658,-6.6549,-6.6556,-6.6574,-6.6611,-6.6613,-6.6567,-6.6516,-6.6553,-6.6532,-6.6477,-6.6557,-6.6509,-6.6516,-6.6575,-6.6657,-6.6667,-6.6677,-6.6782,-6.6805,-6.6825,0,0,0,0,0,0,-6.6608,-6.6576,-6.6541,-6.6618,-6.6618,-6.6592,-6.6637,-6.6594,-6.6608,-6.6597,-6.654,-6.6538,-6.6607,-6.6598,-6.6544,-6.6672,-6.6598,-6.661,-6.6675,-6.6697,-6.6715,-6.6714,-6.6449,0,0,0,0,0,-6.6642,-6.6674,-6.6644,-6.6715,-6.6717,-6.6678,-6.6692,-6.6658,-6.6655,-6.6654,-6.6637,-6.6637,-6.6662,-6.668,-6.6701,-6.6789,-6.6784,-6.6834,-6.6852,-6.6867,-6.6876,-6.6923,-6.6944,-6.6714,-6.6714,-6.6714,0,0,-6.671,-6.6697,-6.672,-6.6737,-6.6732,-6.6767,-6.6678,-6.6718,-6.6744,-6.666,-6.6716,-6.6705,-6.6701,-6.6776,-6.6809,-6.677,-6.694,-6.6879,-6.6891,-6.6893,-6.6935,-6.6957,-6.6976,-6.6721,-6.6719,-6.6718,0,0,-6.6851,-6.6845,-6.6903,-6.6902,-6.6897,-6.6872,-6.6886,-6.6869,-6.6857,-6.6913,-6.6852,-6.6882,-6.6926,-6.6926,-6.6932,-6.7079,-6.703,-6.7088,-6.718,-6.7226,-6.7244,-6.7259,-6.7311,-6.733,-6.7099,-6.7099,-6.7099,0,-6.6936,-6.6986,-6.6939,-6.6983,-6.6993,-6.6921,-6.698,-6.6981,-6.6984,-6.6992,-6.695,-6.7006,-6.6998,-6.7073,-6.7109,-6.7117,-6.7131,-6.7088,-6.7245,-6.726,-6.7274,-6.7322,-6.7342,-6.7106,-6.7105,-6.7105,-6.7104,0,-6.709,-6.7126,-6.7174,-6.7179,-6.7195,-6.7246,-6.7208,-6.7229,-6.7195,-6.7175,-6.7233,-6.7223,-6.7241,-6.7257,-6.7224,-6.7328,-6.7304,-6.7255,-6.7178,-6.7304,-6.7348,-6.7366,-6.7116,-6.7114,-6.7112,-6.711,0,0,-6.7295,-6.7277,-6.7295,-6.7297,-6.7289,-6.7316,-6.7366,-6.7385,-6.7404,-6.741,-6.745,-6.7491,-6.7446,-6.7453,-6.742,-6.7461,-6.7577,-6.7407,-6.7406,-6.7437,-6.7691,-6.7726,-6.7748,-6.7547,-6.755,-6.7553,-6.769,0,-6.743,-6.7513,-6.7474,-6.7561,-6.7594,-6.7529,-6.7572,-6.7573,-6.7556,-6.7582,-6.7564,-6.7593,-6.7532,-6.7536,-6.7574,-6.7555,-6.7627,-6.7545,-6.7582,-6.7584,-6.7582,-6.7771,-6.7808,-6.7938,-6.7708,-6.771,-6.7713,0,-6.7597,-6.7611,-6.7702,-6.769,-6.7702,-6.7742,-6.7756,-6.7783,-6.7783,-6.7768,-6.7778,-6.7736,-6.7785,-6.7713,-6.7779,-6.7724,-6.7738,-6.7732,-6.7736,-6.7735,-6.7653,-6.7773,-6.7979,-6.7997,-6.774,-6.7737,-6.7736,0,-6.7735,-6.7778,-6.7837,-6.7842,-6.783,-6.7859,-6.7856,-6.7852,-6.7866,-6.788,-6.7889,-6.7909,-6.7919,-6.7935,-6.79,-6.7851,-6.7972,-6.7896,-6.796,-6.7961,-6.7985,-6.7983,-6.8193,-6.7999,-6.7999,-6.7999,-6.7998,0,-6.7888,-6.7946,-6.7899,-6.7936,-6.8,-6.7956,-6.802,-6.801,-6.8008,-6.8042,-6.7988,-6.8021,-6.7974,-6.8003,-6.7977,-6.8036,-6.8041,-6.803,-6.8022,-6.8033,-6.8035,-6.8039,-6.8028,-6.8004,-6.8003,-6.8002,-6.8001,0,-6.8051,-6.8023,-6.8084,-6.8069,-6.8067,-6.8114,-6.8101,-6.8135,-6.8116,-6.816,-6.8168,-6.8138,-6.817,-6.8138,-6.8167,-6.815,-6.8228,-6.8208,-6.8228,-6.8221,-6.8286,-6.828,-6.8503,-6.853,-6.8322,-6.8324,-6.8325,0,-6.8149,-6.8192,-6.8183,-6.8202,-6.8202,-6.8234,-6.8249,-6.8209,-6.8227,-6.8232,-6.8266,-6.8293,-6.8312,-6.8366,-6.8347,-6.837,-6.8348,-6.8425,-6.8351,-6.8361,-6.8347,-6.8344,-6.8348,-6.8439,-6.8442,-6.8444,-6.8445,0,-6.8325,-6.831,-6.8333,-6.8354,-6.8374,-6.8387,-6.8397,-6.8416,-6.8375,-6.8398,-6.843,-6.8445,-6.8477,-6.8504,-6.8522,-6.8518,-6.8475,-6.847,-6.8485,-6.8496,-6.8505,-6.8499,-6.8266,-6.8464,-6.8462,-6.8461,-6.846,-6.8459,-6.8457,-6.8493,-6.8492,-6.8521,-6.8525,-6.8536,-6.8567,-6.8554,-6.858,-6.8602,-6.8578,-6.8617,-6.8618,-6.8638,-6.864,-6.867,-6.8638,-6.8661,-6.8666,-6.8672,-6.868,-6.8503,-6.8674,-6.8673,-6.8673,-6.8672,-6.8672,0,-6.8629,-6.8626,-6.8654,-6.867,-6.8693,-6.8653,-6.8662,-6.8684,-6.872,-6.8725,-6.8746,-6.8784,-6.8811,-6.8797,-6.882,-6.8848,-6.8829,-6.8855,-6.8851,-6.8851,-6.8709,-6.8692,-6.887,-6.887,-6.887,-6.887,-6.887,-6.887,-6.8721,-6.8779,-6.8765,-6.8825,-6.8822,-6.8861,-6.8869,-6.888,-6.8884,-6.8928,-6.8951,-6.8942,-6.894,-6.8964,-6.8987,-6.8982,-6.8993,-6.9026,-6.9014,-6.8881,-6.8861,-6.8842,-6.8826,-6.9029,-6.903,-6.9153,-6.9154,-6.9155]},{"header":{"parameterUnit":"m.s-1","parameterCategory":1,"la1":30.2991,"la2":30.254,"lo1":-89.0895,"lo2":-89.0444,"dy":0.0017,"dx":0.0017,"nx":28,"ny":28,"refTime":"2023-08-21T03:00:00:Z","depth":0,"parameterNumber":3,"parameterNumberName":"V-component_of_WINDS"},"data":[0,0,0,0,0,0,0,0,0,0,0,0,0,0,0,0,0,0,0,0,0,0,0,0,0,0,0,0,0,0,0,0,0,0,0,0,0,0,0,0,0,0,0,0,0,0,0,0,0,0,0,0,0,0,0,0,0,0,2.9541,2.9542,0,2.9585,2.9586,2.9586,2.9661,2.9663,2.9664,2.9666,2.9703,2.9703,2.9703,0,0,0,0,0,0,0,0,0,0,0,0,0,2.9517,2.9517,2.9541,2.9542,2.9542,2.9585,2.9586,2.9587,2.9661,2.9663,2.9665,2.9666,2.9704,2.9703,2.9703,0,0,0,0,0,0,0,0,0,0,0,0,0,2.9541,2.9517,2.9541,2.9585,2.9589,2.9585,2.9586,2.9587,2.9661,2.9663,2.9665,2.9667,2.9704,2.9703,2.9703,2.9657,0,0,2.9701,2.9701,0,0,0,0,0,0,0,0,2.954,2.9542,2.9578,2.9582,2.9587,2.962,2.9592,2.961,2.966,2.9633,2.9666,2.9668,2.9674,2.9676,2.9679,2.9659,2.9661,2.9701,2.9701,2.9701,2.9701,0,0,0,0,0,0,0,2.9538,2.954,2.9559,2.9578,2.9584,2.9601,2.9607,2.9595,2.9641,2.9636,2.9641,2.9646,2.9676,2.9679,2.968,2.9661,2.9701,2.9701,2.9701,2.97,2.9608,2.9606,0,0,0,0,0,0,2.9531,2.9538,2.9557,2.956,2.9568,2.96,2.9606,2.9607,2.9641,2.9649,2.9644,2.9649,2.9679,2.9681,2.9682,2.9632,2.9701,2.97,2.97,2.961,2.9607,2.9605,0,0,0,0,0,0,2.953,2.9532,2.9555,2.9551,2.9555,2.9598,2.9599,2.9607,2.961,2.9648,2.9655,2.9639,2.9681,2.9683,2.9664,2.9634,2.97,2.97,2.9613,2.9609,2.9606,2.953,0,0,0,0,0,0,2.9529,2.9531,2.9515,2.955,2.9555,2.9537,2.9597,2.9606,2.961,2.9617,2.9645,2.9651,2.9683,2.9664,2.9663,2.9635,2.9699,2.9615,2.9611,2.9607,2.9536,2.9525,2.9516,0,0,0,0,0,2.9528,2.949,2.9514,2.9515,2.9536,2.9536,2.9538,2.9577,2.9607,2.9591,2.9616,2.9651,2.9638,2.9662,2.9661,2.9632,2.9617,2.9612,2.9608,2.954,2.9527,2.9516,0,0,0,0,0,0,2.9447,2.9495,2.9522,2.9495,2.9511,2.9548,2.9529,2.9562,2.9568,2.9574,2.962,2.9625,2.96,2.9615,2.964,2.9591,2.9633,2.9628,2.9582,2.957,2.956,2.9557,2.9699,0,0,0,0,0,2.9426,2.9423,2.9465,2.9437,2.9444,2.9485,2.9486,2.9515,2.9532,2.9539,2.9562,2.9576,2.9576,2.9574,2.9575,2.9539,2.9546,2.9519,2.9509,2.9501,2.9495,2.9478,2.9466,2.9589,2.9589,2.9589,0,0,2.9382,2.9409,2.9403,2.9421,2.9437,2.9432,2.949,2.9481,2.9478,2.9537,2.9521,2.9539,2.9557,2.953,2.9519,2.9541,2.9463,2.9494,2.9488,2.9486,2.9472,2.946,2.945,2.9586,2.9586,2.9587,0,0,2.9301,2.932,2.93,2.9316,2.934,2.9369,2.9364,2.9397,2.9412,2.9398,2.9442,2.9438,2.9436,2.9448,2.9454,2.938,2.9412,2.9379,2.9326,2.9309,2.9299,2.9291,2.9264,2.9254,2.9374,2.9373,2.9373,0,2.9242,2.9238,2.9284,2.9274,2.9281,2.9338,2.9317,2.9329,2.9352,2.9354,2.938,2.938,2.9397,2.9373,2.9356,2.9359,2.9354,2.9375,2.9297,2.9289,2.9282,2.9257,2.9247,2.9369,2.937,2.937,2.9371,0,2.9166,2.9162,2.9143,2.9167,2.9171,2.9155,2.9198,2.9197,2.9226,2.9251,2.9236,2.9259,2.9267,2.9264,2.929,2.9244,2.9258,2.9289,2.9333,2.9265,2.9243,2.9234,2.9363,2.9365,2.9366,2.9367,0,0,2.9031,2.9084,2.9076,2.9088,2.9121,2.9118,2.9105,2.9116,2.9114,2.9128,2.9118,2.9117,2.9148,2.9154,2.9184,2.9169,2.9109,2.9203,2.9204,2.9184,2.906,2.9035,2.9023,2.9132,2.913,2.9129,2.9058,0,2.8956,2.8938,2.8981,2.8952,2.895,2.9006,2.8994,2.9013,2.9036,2.9036,2.9062,2.9061,2.9101,2.9106,2.9094,2.9119,2.9085,2.9125,2.9121,2.912,2.9114,2.9011,2.8985,2.8916,2.905,2.9048,2.9047,0,2.8864,2.8877,2.8849,2.8887,2.8887,2.8876,2.889,2.889,2.8912,2.8931,2.894,2.8976,2.8965,2.9008,2.8993,2.902,2.9021,2.9033,2.9032,2.9031,2.9078,2.9008,2.8896,2.8885,2.9034,2.9035,2.9036,0,2.8769,2.8779,2.8765,2.8773,2.8816,2.8807,2.8824,2.8849,2.8853,2.8865,2.8868,2.8877,2.8882,2.8888,2.8925,2.8953,2.8906,2.8952,2.8919,2.8918,2.8905,2.8905,2.8791,2.8908,2.8908,2.8908,2.8908,0,2.8679,2.8659,2.8723,2.8713,2.8693,2.8742,2.8721,2.8743,2.8765,2.876,2.8808,2.8802,2.8853,2.8852,2.8881,2.8864,2.8866,2.8879,2.8887,2.8874,2.8873,2.8875,2.888,2.8905,2.8906,2.8906,2.8907,0,2.8568,2.861,2.8597,2.864,2.865,2.8634,2.8669,2.8662,2.869,2.8684,2.8685,2.8728,2.873,2.8769,2.8778,2.8797,2.8768,2.8785,2.8761,2.8767,2.8732,2.8734,2.8614,2.86,2.8726,2.8725,2.8724,0,2.8507,2.8494,2.8537,2.8539,2.8554,2.8555,2.8561,2.8609,2.8613,2.8639,2.8628,2.8635,2.8643,2.8643,2.8674,2.8682,2.8698,2.8656,2.8699,2.8688,2.8697,2.8697,2.8696,2.8646,2.8644,2.8643,2.8642,0,2.8396,2.8418,2.8425,2.8441,2.8447,2.846,2.8477,2.8475,2.8528,2.8529,2.8534,2.854,2.8551,2.8557,2.8571,2.8587,2.8622,2.8628,2.8621,2.8607,2.8594,2.8601,2.8735,2.863,2.8631,2.8632,2.8633,2.8633,2.8308,2.83,2.8329,2.8336,2.8354,2.8369,2.8365,2.8394,2.8399,2.8414,2.8442,2.8442,2.8466,2.8489,2.8502,2.8502,2.8523,2.8513,2.851,2.8506,2.85,2.8596,2.8504,2.8505,2.8505,2.8506,2.8506,0,2.8199,2.8221,2.8228,2.8251,2.8256,2.8293,2.8314,2.8315,2.8316,2.8336,2.8344,2.8349,2.8356,2.8389,2.8399,2.8392,2.8409,2.8393,2.8393,2.8396,2.848,2.8485,2.8379,2.8379,2.8379,2.8379,2.8379,2.8379,2.8142,2.8131,2.8156,2.8154,2.8177,2.8179,2.8188,2.8201,2.8218,2.8223,2.823,2.8252,2.8278,2.829,2.8298,2.8307,2.8308,2.8287,2.8301,2.8378,2.839,2.8402,2.8407,2.8287,2.8286,2.8218,2.8217,2.8217]}]]